TimeAKDT,TemperatureF,Dew PointF,Humidity,Sea Level PressureIn,VisibilityMPH,Wind Direction,Wind SpeedMPH,Gust SpeedMPH,PrecipitationIn,Events,Conditions,WindDirDegrees,DateUTC
12:53 AM,-23.1,-26.0,86,30.40,10.0,West,8.1,-,N/A,,Partly Cloudy,270,2013-05-01 08:53:00
1:53 AM,-24.0,-27.9,82,30.39,10.0,West,9.2,-,N/A,,Clear,260,2013-05-01 09:53:00
2:09 AM,-23.8,-27.4,83,30.37,10.0,West,10.4,-,N/A,,Scattered Clouds,260,2013-05-01 10:09:00
2:53 AM,-22.0,-27.0,77,30.37,10.0,WSW,9.2,-,N/A,,Mostly Cloudy,240,2013-05-01 10:53:00
3:53 AM,-23.1,-27.9,78,30.35,10.0,SW,11.5,-,N/A,,Mostly Cloudy,220,2013-05-01 11:53:00
4:36 AM,-22.0,-27.4,76,30.33,10.0,SW,11.5,-,N/A,,Scattered Clouds,230,2013-05-01 12:36:00
4:53 AM,-22.0,-27.0,77,30.33,10.0,SW,12.7,-,N/A,,Scattered Clouds,230,2013-05-01 12:53:00
5:53 AM,-18.9,-25.1,74,30.32,3.0,SW,15.0,-,N/A,,Mostly Cloudy,220,2013-05-01 13:53:00
6:00 AM,-18.4,-23.8,76,30.30,2.0,SW,15.0,-,N/A,,Overcast,220,2013-05-01 14:00:00
6:07 AM,-18.4,-23.8,76,30.30,3.0,SW,15.0,-,N/A,,Mostly Cloudy,220,2013-05-01 14:07:00
6:18 AM,-18.4,-23.8,76,30.30,3.0,SW,15.0,-,N/A,,Mostly Cloudy,220,2013-05-01 14:18:00
6:25 AM,-18.4,-23.8,76,30.30,3.0,SW,16.1,-,N/A,,Mostly Cloudy,230,2013-05-01 14:25:00
6:32 AM,-18.4,-23.8,76,30.30,3.0,SW,15.0,-,N/A,,Scattered Clouds,230,2013-05-01 14:32:00
6:53 AM,-18.0,-23.1,78,30.30,3.0,SW,15.0,-,N/A,,Scattered Clouds,230,2013-05-01 14:53:00
7:49 AM,-16.6,-22.0,76,30.27,2.0,SW,16.1,-,N/A,,Scattered Clouds,230,2013-05-01 15:49:00
7:53 AM,-17.0,-22.0,78,30.28,2.0,SW,15.0,-,N/A,,Scattered Clouds,230,2013-05-01 15:53:00
7:58 AM,-16.6,-22.0,76,30.27,2.0,SW,16.1,-,N/A,,Overcast,230,2013-05-01 15:58:00
8:07 AM,-16.6,-22.0,76,30.27,1.8,SW,16.1,-,N/A,Snow,Blowing Snow,230,2013-05-01 16:07:00
8:12 AM,-16.6,-20.2,84,30.27,2.0,SW,16.1,-,N/A,Snow,Blowing Snow,230,2013-05-01 16:12:00
8:17 AM,-14.8,-20.2,77,30.27,2.0,SW,15.0,-,N/A,Snow,Blowing Snow,230,2013-05-01 16:17:00
8:24 AM,-14.8,-20.2,77,30.27,3.0,SW,17.3,-,N/A,Snow,Blowing Snow,230,2013-05-01 16:24:00
8:53 AM,-14.1,-20.0,75,30.27,3.0,SW,17.3,-,N/A,Snow,Blowing Snow,220,2013-05-01 16:53:00
9:53 AM,-9.9,-15.0,78,30.25,3.0,SW,18.4,-,N/A,Snow,Blowing Snow,230,2013-05-01 17:53:00
10:53 AM,-7.1,-13.0,75,30.24,3.0,SW,20.7,-,0.00,Snow,Blowing Snow,230,2013-05-01 18:53:00
11:53 AM,-6.0,-11.9,75,30.23,6.0,SW,21.9,-,N/A,Snow,Blowing Snow,230,2013-05-01 19:53:00
12:53 PM,-2.9,-9.0,75,30.22,6.0,SW,20.7,-,N/A,Snow,Blowing Snow,230,2013-05-01 20:53:00
1:53 PM,-2.0,-8.0,76,30.21,6.0,SW,20.7,-,N/A,Snow,Blowing Snow,230,2013-05-01 21:53:00
2:53 PM,-0.9,-6.0,79,30.19,6.0,SW,18.4,-,N/A,Snow,Blowing Snow,220,2013-05-01 22:53:00
3:53 PM,1.0,-5.1,75,30.18,6.0,SW,18.4,-,N/A,Snow,Blowing Snow,230,2013-05-01 23:53:00
4:53 PM,1.0,-5.1,75,30.17,5.0,WSW,19.6,-,N/A,Snow,Blowing Snow,240,2013-05-02 00:53:00
5:53 PM,1.9,-5.1,72,30.17,10.0,WSW,19.6,-,N/A,Snow,Blowing Snow,240,2013-05-02 01:53:00
6:53 PM,1.9,-4.0,76,30.15,7.0,SW,17.3,-,N/A,,Overcast,230,2013-05-02 02:53:00
7:53 PM,1.0,-5.1,75,30.15,10.0,SW,15.0,-,N/A,,Overcast,230,2013-05-02 03:53:00
8:53 PM,-0.9,-6.0,79,30.15,10.0,SW,12.7,-,N/A,,Overcast,220,2013-05-02 04:53:00
9:53 PM,-2.0,-7.1,79,30.15,10.0,SSW,15.0,-,N/A,,Overcast,210,2013-05-02 05:53:00
10:53 PM,-2.0,-7.1,79,30.15,10.0,SW,16.1,-,N/A,,Overcast,220,2013-05-02 06:53:00
11:29 PM,-2.2,-7.6,78,30.14,10.0,SW,16.1,-,N/A,,Overcast,220,2013-05-02 07:29:00
11:53 PM,-2.0,-7.1,79,30.15,10.0,SW,16.1,-,N/A,,Overcast,230,2013-05-02 07:53:00